カタログに戻る

SL-14 DEB

運用中PO
NORAD 26007·DEBRIS·🇷🇺 Russia

打ち上げ Sep 28, 1991 から Plesetsk Cosmodrome

Loading…

次のパス (今後24時間)

TLE

最新Source: Space-Track

元期: Sep 14, 2026, 14:54 UTC

1 26007U 91068S   26257.62096392  .00000018  00000-0  49253-4 0  9994
2 26007  82.7012 198.8256 0011293 344.6093 133.3196 12.48359294227094

AllMySatでSL-14 DEBをリアルタイム追跡

Download on the App Store